Location: Flotzheim
(48.8375°N, 10.8136°E)
Time: 16:37:53
(UTC+00:00)

ARGOS - Pass Details

Date: 23 January 2021
Orbit: 821 x 834 km, 98.4° (Epoch: 28 February)

Event Time Altitude Azimuth Distance (km) Brightness Sun altitude
Rises 18:14:23 0° 165° (SSE) 3,342 6.2 -21.8°
Reaches altitude 10° 18:16:42 10° 166° (SSE) 2,414 5.5 -22.2°
Maximum altitude 18:22:04 85° 254° (WSW) 834 3.1 -23.1°
Drops below altitude 10° 18:27:30 10° 345° (NNW) 2,439 5.7 -23.9°
Sets 18:29:52 0° 346° (NNW) 3,378 6.5 -24.3°
